Regional Weather Roundup
Issued by NWS

Home | Current Version | Previous Version | Text Only | Print | Product List | Glossary On
Versions: 1 2 3 4 5 6 7 8 9 10 11 12 13 14 15 16 17 18 19 20 21 22 23 24 25 26 27 28 29 30 31 32 33 34 35 36 37 38 39 40 41 42 43 44 45 46 47 48 49 50
000
ASUS44 KFWD 210003
RWRTX
NORTH TEXAS HOURLY WEATHER ROUNDUP
NATIONAL WEATHER SERVICE FORT WORTH TX
700 PM CDT SUN AUG 20 2017

NOTE: "FAIR" INDICATES FEW OR NO CLOUDS BELOW 12,000 FEET WITH NO
SIGNIFICANT WEATHER AND/OR OBSTRUCTIONS TO VISIBILITY.

TXZ118-119-210100-
DALLAS/FORT WORTH METROPLEX

CITY           SKY/WX    TMP DP  RH WIND       PRES   REMARKS
DFW AIRPORT    MOSUNNY   94  69  44 SE13      29.92F HX  99
6HR MIN TEMP:  94; 6HR MAX TEMP:  98;

DALLAS LOVE    MOSUNNY   95  68  41 SE15      29.93F HX  99
6HR MIN TEMP:  94; 6HR MAX TEMP:  98;

FTW MEACHAM    MOSUNNY   96  68  39 SE15      29.92S HX 101
6HR MIN TEMP:  94; 6HR MAX TEMP:  98;

DAL-EXECUTIVE  SUNNY     94  70  45 SE12      29.93F HX 100
6HR MIN TEMP:  93; 6HR MAX TEMP:  98;

FTW-ALLIANCE   MOSUNNY   94  69  44 E13       29.93S HX  99
6HR MIN TEMP:  93; 6HR MAX TEMP:  98;

FTW-SPINKS     MOSUNNY   95  64  36 SE7       29.95S HX  97
ARLINGTON      SUNNY     94  70  45 E14       29.93S HX 100
6HR MIN TEMP:  94; 6HR MAX TEMP:  98;

GRAND PRAIRIE  SUNNY     95  64  36 E12G17    29.94S HX  97
ADDISON        SUNNY     93  66  40 MISG      29.95F HX  96
MESQUITE       SUNNY     91  70  49 E7        29.95F HX  97
LANCASTER      SUNNY     95  68  42 SE10      29.95S HX  99
6HR MIN TEMP:  94; 6HR MAX TEMP:  98;

$$

TXZ091>094-102>105-117-120-121-131>134-210100-
NORTH CENTRAL TEXAS

CITY           SKY/WX    TMP DP  RH WIND       PRES   REMARKS
SHRMAN/DENISON SUNNY     91  71  51 SE9       29.97S HX  97
6HR MIN TEMP:  91; 6HR MAX TEMP:  94;

GAINESVILLE    SUNNY     91  69  47 SE9       29.97S HX  96
6HR MIN TEMP:  91; 6HR MAX TEMP:  94;

BOWIE          SUNNY     92  69  47 SE3       29.96R HX  96
6HR MIN TEMP:  91; 6HR MAX TEMP:  94;

BRIDGEPORT     SUNNY     93  68  43 SE5       29.95S HX  97
6HR MIN TEMP:  92; 6HR MAX TEMP:  96;

DECATUR        SUNNY     94  66  40 SE9         N/A  HX  97
6HR MIN TEMP:  92; 6HR MAX TEMP:  96;

DENTON         MOSUNNY   93  71  48 SE9       29.93S HX 100
6HR MIN TEMP:  92; 6HR MAX TEMP:  96;

MCKINNEY       SUNNY     91  74  57 SE9       29.95F HX 100
6HR MIN TEMP:  91; 6HR MAX TEMP:  94;

BONHAM         SUNNY     90  73  58 SE9       29.97S HX  98
ROCKWALL       SUNNY     91  72  52 SE12G17   29.96S HX  99
6HR MIN TEMP:  91; 6HR MAX TEMP:  94;

TERRELL        SUNNY     92  71  50 SE9       29.96S HX  98
6HR MIN TEMP:  92; 6HR MAX TEMP:  95;

WAXAHACHIE     SUNNY     92  69  46 E7        29.95S HX  97
6HR MIN TEMP:  92; 6HR MAX TEMP:  97;

CLEBURNE       SUNNY     95  66  38 S10       29.96S HX  98
GRANBURY       SUNNY     95  66  37 SE10      29.94S HX  98
6HR MIN TEMP:  94; 6HR MAX TEMP:  98;

$$

TXZ083>090-098>101-113>116-127>130-139>142-154-155-210100-
WESTERN NORTH TEXAS

CITY           SKY/WX    TMP DP  RH WIND       PRES   REMARKS
WICHITA FALLS  SUNNY     92  68  45 SE17      29.92R HX  96
6HR MIN TEMP:  88; 6HR MAX TEMP:  96;

WF-KICKAPOO    SUNNY     94  69  43 SE15G23   29.94S HX  99
6HR MIN TEMP:  88; 6HR MAX TEMP:  97;

VERNON         SUNNY     96  57  27 SE13G18   29.92S HX  94
6HR MIN TEMP:  84; 6HR MAX TEMP:  98;

ABILENE        SUNNY     93  59  31 SE17      29.95S HX  92
6HR MIN TEMP:  90; 6HR MAX TEMP:  95;

ABILENE-DYESS  SUNNY     94  63  35 SE14      29.93S HX  95
6HR MIN TEMP:  91; 6HR MAX TEMP:  97;

BRECKENRIDGE   SUNNY     96  60  30 SE12      29.93S HX  96
6HR MIN TEMP:  95; 6HR MAX TEMP:  99;

CISCO          SUNNY     95  57  28 SE10G17   29.95F HX  94
EASTLAND       SUNNY     94  63  35 SE14      29.94S HX  95
6HR MIN TEMP:  91; 6HR MAX TEMP:  98;

RANGER         SUNNY     91  65  42 SE9G16    29.96R HX  93
6HR MIN TEMP:  67; 6HR MAX TEMP:  96;

MINERAL WELLS  SUNNY     94  66  39 SE10      29.93S HX  97
6HR MIN TEMP:  93; 6HR MAX TEMP:  98;

STEPHENVILLE   SUNNY     92  64  39 SE6       29.98S HX  94
6HR MIN TEMP:  91; 6HR MAX TEMP:  94;

COMANCHE       SUNNY     94  62  33 SE14G21   29.95S HX  95
6HR MIN TEMP:  94; 6HR MAX TEMP: 100;

COLEMAN        SUNNY     96  55  24 SE13      29.95S HX  94
6HR MIN TEMP:  93; 6HR MAX TEMP:  98;

$$

TXZ143>147-156>162-174-175-210100-
CENTRAL TEXAS

CITY           SKY/WX    TMP DP  RH WIND       PRES   REMARKS
WACO           SUNNY     96  64  34 SE8       29.92S HX  98
6HR MIN TEMP:  94; 6HR MAX TEMP:  99;

WACO-TSTC      MOSUNNY   97  63  32 S9        29.92F HX  98
WACO-MCGREGOR  MOSUNNY   97  66  36 SE13      29.93S HX 100
6HR MIN TEMP:  96; 6HR MAX TEMP: 101;

HILLSBORO      SUNNY     97  68  38 SE9       29.93F HX 101
6HR MIN TEMP:  94; 6HR MAX TEMP:  99;

CORSICANA      SUNNY     96  70  42 E6        29.95F HX 102
6HR MIN TEMP:  95; 6HR MAX TEMP:  99;

MEXIA          PTSUNNY   96  66  37 SE10      29.93S HX  99
6HR MIN TEMP:  93; 6HR MAX TEMP:  99;

HEARNE         SUNNY     94  67  40 SE6       29.93F HX  98
6HR MIN TEMP:  91; 6HR MAX TEMP:  97;

CAMERON        SUNNY     95  66  37 SE8       29.92F HX  98
6HR MIN TEMP:  93; 6HR MAX TEMP:  98;

TEMPLE         SUNNY     96  65  35 SE12      29.94S HX  98
6HR MIN TEMP:  95; 6HR MAX TEMP: 100;

KILLEEN        SUNNY     94  63  36 SE12      29.94S HX  95
6HR MIN TEMP:  93; 6HR MAX TEMP:  96;

KILLEEN-SKYLRK SUNNY     95  68  41 S13       29.94S HX  99
6HR MIN TEMP:  94; 6HR MAX TEMP:  98;

HAMILTON       SUNNY     94  61  32 SE9       29.97S HX  94
6HR MIN TEMP:  94; 6HR MAX TEMP:  98;

LAMPASAS       SUNNY     96  66  37 S8        29.95S HX  99
6HR MIN TEMP:  93; 6HR MAX TEMP:  98;

$$

TXZ095>097-106>112-122>126-135>138-148>153-164>167-210100-
EAST TEXAS

CITY           SKY/WX    TMP DP  RH WIND       PRES   REMARKS
PARIS          SUNNY     91  74  57 SE8       29.99S HX 100
6HR MIN TEMP:  91; 6HR MAX TEMP:  96;

SULPHUR SPRNGS SUNNY     92  71  50 S8        29.99F HX  99
6HR MIN TEMP:  92; 6HR MAX TEMP:  95;

MOUNT PLEASANT MOSUNNY   87  72  61 SE12G17   30.00R HX  93
6HR MIN TEMP:  87; 6HR MAX TEMP:  95;

GILMER         MOSUNNY   84  73  70 E7        30.00R HX  90
6HR MIN TEMP:  84; 6HR MAX TEMP:  94;

MINEOLA        SUNNY     90  75  62 SE5       29.97F HX 100
TYLER          SUNNY     91  70  49 SE7       29.97F HX  96
6HR MIN TEMP:  91; 6HR MAX TEMP:  94;

LONGVIEW       MOSUNNY   86  77  74 SE8       29.98F HX  97
6HR MIN TEMP:  85; 6HR MAX TEMP:  95; 6HR PCP:  0.01;

MARSHALL         N/A     85  76  73 CALM      30.02S HX  94
6HR MIN TEMP:  80; 6HR MAX TEMP:  93; 6HR PCP:  0.01;

ATHENS         SUNNY     90  70  51 E6        29.95F HX  95
PALESTINE      SUNNY     94  69  44 SE5       29.96F HX  99
JACKSONVILLE   SUNNY     92  70  48 CALM      30.01S HX  98
HENDERSON      SUNNY     86  74  66 CALM      30.01R HX  93
6HR MIN TEMP:  85; 6HR MAX TEMP:  95;

CENTER         PTCLDY    87  78  73 E5        30.01S HAZE    HX  99
6HR MIN TEMP:  83; 6HR MAX TEMP:  97;

NACOGDOCHES    MOSUNNY   86  73  66 SE8       30.00R HX  93
6HR MIN TEMP:  86; 6HR MAX TEMP:  97;

LUFKIN         CLOUDY    80  74  81 S3        30.00R
6HR MIN TEMP:  80; 6HR MAX TEMP:  96; 6HR PCP: TRACE;

$$

SUPPLEMENTAL OBSERVATIONS (NWS FORT WORTH AREA)

CITY           SKY/WX    TMP DP  RH WIND       PRES   REMARKS
$$

SUPPLEMENTAL OBSERVATIONS (NWS NORMAN AREA)

CITY           SKY/WX    TMP DP  RH WIND       PRES   REMARKS
GOODLETT         N/A     92  63  38 SE13      29.92S HX  93
ODELL            N/A     93  65  39 SE12      29.93S HX  95
CROWELL          N/A     95  67  39 SE13      29.93R HX  98
KNOX CITY        N/A     95  58  29 S17       29.92S HX  94
SEYMOUR          N/A     95  59  30 SE16      29.92S HX  95
$$

SUPPLEMENTAL OBSERVATIONS (NWS SAN ANGELO AREA)

CITY           SKY/WX    TMP DP  RH WIND       PRES   REMARKS
WEINERT          N/A     96  63  33 S10



USA.gov is the U.S. government's official web portal to all federal, state and local government web resources and services.